Regional Weather Roundup
Issued by NWS Nashville, TN

Home | Current Version | Previous Version | Text Only | Print | Product List | Glossary On
Versions: 1 2 3 4 5 6 7 8 9 10 11 12 13 14 15 16 17 18 19 20 21 22 23 24 25 26 27 28 29 30 31 32 33 34 35 36 37 38 39 40 41 42 43 44 45 46 47 48 49 50
000
ASUS44 KOHX 311115
RWROHX
MIDDLE TENNESSEE HOURLY WEATHER ROUNDUP
NATIONAL WEATHER SERVICE NASHVILLE TN
500 AM CST SAT JAN 31 2015

NOTE: "FAIR" INDICATES FEW OR NO CLOUDS BELOW 12,000 FEET WITH
NO SIGNIFICANT WEATHER AND/OR OBSTRUCTIONS TO VISIBILITY.

* THESE REPORTS ARE NOT UNDER NWS QUALITY CONTROL AND MAY NOT
  REPORT WEATHER SUCH AS PRECIPITATION AND FOG.


TNZ005>011-023>034-057-059-062>066-078-080-311200
...NORTHERN MIDDLE TENNESSEE...

CITY           SKY/WX    TMP DP  RH WIND       PRES   REMARKS
CLARKSVILLE    CLEAR     22  20  92 CALM      30.37F
CROSSVILLE     CLEAR     21  17  84 CALM      30.31F
GALLATIN         N/A     19  18  96 CALM      30.39S
DICKSON        CLEAR     27  19  74 CALM      30.34F
LEBANON        PTCLDY    20  17  88 CALM      30.36S
NASHVILLE      PTCLDY    24  20  84 CALM      30.38S
WEST NASHVILLE   N/A     21  21 100 CALM      30.39S
PORTLAND       PTCLDY    19  16  86 CALM      30.36S
SMYRNA         PTCLDY    21  19  92 CALM      30.40S
SPARTA         CLEAR     16  16 100 CALM      30.35R
$$
TNZ056-058-060-061-075>077-079-093>097-311200
...SOUTHERN MIDDLE TENNESSEE...

CITY           SKY/WX    TMP DP  RH WIND       PRES   REMARKS
COLUMBIA       CLEAR     25  25 100 CALM      30.35S
LEWISBURG      PTCLDY    22  18  85 CALM      30.37R
MCMINNVILLE    CLEAR     19  18  93 N3        30.35S
MURFREESBORO   PTCLDY    23  20  89 CALM      30.38S
SHELBYVILLE    CLEAR     21  19  93 CALM      30.37S
TULLAHOMA      CLEAR     21  18  86 CALM      30.34F
WINCHESTER     CLEAR     19  18  93 CALM      30.35S
$$


...KEY TO REMARKS...
VSB - VISIBILITY IN MILES
WCI - WIND CHILL INDEX
HX  - HEAT INDEX



USA.gov is the U.S. government's official web portal to all federal, state and local government web resources and services.